Location: St Andrew
(49.4460°N, 2.5750°W)
Time: 18:23:27
(UTC+01:00)

Daily predictions for brighter satellites

Satellite Brightness Start Highest point End
(mag) Time Altitude Azimuth Time Altitude Azimuth Time Altitude Azimuth
METEOR-M 4.4 18:28:32 10° SE 18:33:37 46° ENE 18:38:43 10° N
Sich 1 4.3 18:30:51 10° NNE 18:34:08 20° ENE 18:37:24 10° ESE
Meteor 1-16 Rocket 4.3 18:29:23 10° SSW 18:34:42 82° WNW 18:40:11 10° N
Cosmos 2058 2.9 18:30:56 10° N 18:35:08 76° E 18:39:16 10° SSE
ERS-2 2.1 18:33:04 10° SSE 18:36:44 70° ENE 18:40:27 10° N
USA 234 3.9 18:31:10 10° ENE 18:37:24 48° N 18:43:39 10° W
Cosmos 2151 3.0 18:33:35 10° N 18:37:54 82° E 18:42:08 10° SSE
BREEZE M DEB (TANK) 2.6 18:32:45 10° W 18:40:21 87° SSW 18:43:06 10° E
SL-8 Rocket 4.2 18:35:19 10° SSW 18:41:33 80° W 18:47:51 10° N
Cosmos 1726 3.6 18:39:23 10° SE 18:41:55 18° E 18:44:27 10° NE
COSMO-SKYMED 1 3.4 18:39:09 10° NNE 18:43:00 30° E 18:46:50 10° SSE
IRS-1A Rocket 4.4 18:37:17 10° SSE 18:43:11 85° ENE 18:49:08 10° NNW
SMAP 3.5 18:41:06 10° S 18:45:44 70° WSW 18:50:25 10° NNW
EO 1 Del DPAF 3.8 18:45:36 10° NNE 18:49:12 37° E 18:52:47 10° SSE
Meteor 2-1 Rocket 4.3 18:44:20 10° S 18:50:07 66° E 18:56:01 10° NNE
Abrixas 4.0 18:49:15 10° S 18:50:22 13° SSE 18:51:29 10° ESE
Landsat 4 3.6 18:46:47 10° NNE 18:50:30 66° ESE 18:54:11 10° S
Resurs 01 Rocket 3.6 18:51:28 10° ENE 18:51:59 10° NE 18:52:30 10° NE
Cosmos 1805 Rocket 4.0 18:48:03 10° N 18:52:13 40° ENE 18:56:22 10° SE
Cosmos-2242 4.5 18:49:26 10° SW 18:53:27 40° WNW 18:57:30 10° N
BREEZE-M DEB (TANK) 3.2 18:55:59 10° S 18:57:19 15° SE 18:58:19 12° ESE
CZ-4 R/B 2.1 18:55:38 10° S 18:59:45 59° WSW 19:03:50 10° NNW
Cosmos 2333 4.3 18:54:01 10° NNW 18:59:46 88° WSW 19:05:32 10° SSE
Meteor 1-28 Rocket 3.1 18:56:13 10° NNE 19:00:02 79° ESE 19:03:48 10° S
Cosmos 1666 Rocket 4.2 18:57:46 10° N 19:01:43 33° ENE 19:05:38 10° SE
MONITOR-E 4.1 18:59:19 10° SSE 19:02:22 64° ENE 19:05:26 10° N
Iridium 4 Rocket 4.0 18:57:10 10° SSE 19:02:40 48° E 19:08:19 10° NNE
MTI 3.7 19:01:15 10° NNE 19:04:27 71° ESE 19:07:39 10° S
Cosmos 1633 Rocket 3.8 19:01:43 10° N 19:05:40 31° ENE 19:09:37 10° SE
Cosmos 1821 Rocket 4.3 19:00:10 10° SSE 19:06:00 45° E 19:11:57 10° NNE
Cosmos 2237 Rocket 2.6 19:00:40 10° NNW 19:06:09 45° NE 19:11:36 10° SE
YAOGAN 1 2.9 19:03:43 10° S 19:08:02 70° WSW 19:12:22 10° NNW
Cosmos 1626 4.4 19:07:52 10° NNW 19:11:11 30° W 19:14:28 10° SSW
Cosmos 1315 Rocket 3.5 19:07:12 10° NNW 19:11:15 60° W 19:15:18 10° S
Abrixas rocket 2.4 19:08:18 10° W 19:11:35 67° S 19:13:50 18° ESE
SPOT 3 Rocket 3.5 19:06:59 10° SSE 19:12:12 80° ENE 19:17:27 10° NNW
Aureole 2 Rocket 2.7 19:09:12 10° NNW 19:13:07 85° ENE 19:17:12 10° SSE
Cosmos 44 Rocket 3.3 19:08:48 10° SSW 19:13:25 59° ESE 19:18:01 10° NE
Cosmos 1110 Rocket 4.1 19:12:05 10° NNW 19:17:21 58° ENE 19:22:34 10° SE
Cosmos 2227 Rocket 3.3 19:13:38 10° SSE 19:17:50 22° E 19:20:26 16° ENE
SL-16 R/B 3.1 19:14:21 10° NNW 19:19:17 29° NE 19:22:17 19° E
Cosmos 2084 3.3 19:15:36 10° NW 19:19:24 75° SW 19:23:15 10° SE
Cosmos 2360 Rocket 4.5 19:20:36 10° NW 19:25:18 27° WSW 19:29:59 10° SSW
Cosmos 2221 2.5 19:21:11 10° S 19:25:31 87° E 19:29:55 10° N
CZ-2C R/B 4.4 19:21:19 10° N 19:25:45 57° WNW 19:30:07 10° SSW
GRACE-2 4.5 19:23:32 10° SSW 19:26:02 53° W 19:28:34 10° N
Cosmos 2098 Rocket 3.7 19:22:26 10° S 19:27:28 67° E 19:33:51 10° NNE
ATLAS 5 CENTAUR R/B 3.8 19:23:45 10° NW 19:27:46 20° N 19:31:02 13° NE
Cosmos 1908 3.6 19:24:28 10° SSW 19:28:21 69° W 19:32:15 10° N
FREGAT/IRIS 3.1 19:28:39 31° ESE 19:29:24 37° ENE 19:32:13 10° N
Cosmos 158 Rocket 4.0 19:25:16 10° SSW 19:30:23 87° WNW 19:35:42 10° NNE
Cosmos 1980 3.6 19:25:18 10° NNW 19:30:57 68° ENE 19:36:35 10° SE
SKYMED 2 3.5 19:26:54 10° NNE 19:31:16 88° ESE 19:35:37 10° SSW
Cosmos 2123 Rocket 4.0 19:26:18 10° N 19:32:30 61° ENE 19:38:41 10° SSE
SJ-6B 3.2 19:33:58 28° ESE 19:35:13 36° ENE 19:38:41 10° N
Lacrosse 5 rocket 2.7 19:31:29 10° WNW 19:35:22 30° N 19:37:18 21° NE
H-2A R/B 2.9 19:34:37 11° SSE 19:38:18 51° ENE 19:42:09 10° N
APEX 2.8 19:35:51 10° SW 19:38:43 61° WNW 19:40:20 22° NNE
FENGYUN 3A 3.7 19:34:26 10° SSE 19:39:51 86° WSW 19:45:20 10° NNW
Cosmos 1605 Rocket 4.2 19:34:54 10° SSE 19:40:34 42° E 19:46:15 10° NNE
Cosmos 1048 Rocket 4.0 19:36:04 10° SSW 19:41:11 85° WNW 19:46:21 10° NNE
NOSS 0 Rocket 4.0 19:35:13 10° NNW 19:41:26 84° WSW 19:47:34 10° SSE
COSMOS 2428 4.0 19:37:06 10° NW 19:42:26 42° WSW 19:47:45 10° S
Meteor 2-3 Rocket 4.1 19:37:30 10° N 19:42:57 40° ENE 19:46:17 21° SE
Meteor 2-10 4.0 19:38:22 10° S 19:43:18 56° E 19:48:23 10° NNE
Cosmos 2333 Rocket 2.5 19:39:39 10° NNW 19:45:23 72° WSW 19:51:07 10° SSE
ALOS 2.5 19:41:33 10° S 19:46:13 72° WSW 19:50:54 10° NNW
Envisat 3.8 19:47:11 29° ENE 19:47:49 30° ENE 19:52:14 10° N
Cosmos 2219 3.2 19:43:40 10° SSW 19:49:26 88° ESE 19:55:13 10° NNE
Cosmos 1300 2.5 19:46:25 10° S 19:50:13 69° E 19:54:03 10° NNE
Cosmos 2251 Rocket 4.1 19:46:26 10° SSE 19:51:12 35° ESE 19:52:18 32° ENE
Cosmos 1892 3.6 19:49:06 10° N 19:51:44 31° NE 19:51:44 31° NE
Cosmos 2297 Rocket 2.7 19:49:39 10° S 19:54:41 34° ESE 19:55:12 33° E
Cosmos 1470 Rocket 3.6 19:55:56 10° N 20:00:22 56° ENE 20:01:38 41° SE
Cosmos 2082 4.0 20:00:34 10° S 20:05:51 40° ESE 20:06:15 40° E
CZ-2D R/B 3.9 20:07:53 41° NNE 20:07:53 41° NNE 20:10:50 10° N
Thor Agena Rocket 3.3 20:02:22 10° NNE 20:07:30 73° ESE 20:12:32 10° S
Cosmos 1447 Rocket 4.4 20:03:28 10° N 20:09:47 64° ENE 20:14:47 17° SSE
Cosmos 1331 Rocket 4.4 20:04:50 10° NNW 20:10:01 63° WSW 20:15:08 10° S
Cosmos 2219 Rocket 3.5 20:06:27 10° NW 20:11:38 39° WSW 20:16:48 10° S
Sich 1 4.0 20:07:52 10° NNW 20:12:07 49° W 20:16:22 10° SSW
SL-8 R/B 3.6 20:08:42 10° W 20:13:32 81° S 20:14:26 59° ESE
Cosmos 44 3.9 20:10:07 10° WSW 20:14:18 46° NW 20:16:41 23° NNE
CZ-4C R/B 2.4 20:10:37 10° SW 20:16:00 75° NW 20:20:11 21° NE
Cosmos 1726 3.6 20:13:29 10° SW 20:16:56 37° WNW 20:20:24 10° N
COSMO-SKYMED 1 4.3 20:15:16 10° N 20:19:11 33° WNW 20:23:03 10° SW
USA 234 3.7 20:17:16 34° ENE 20:19:48 51° NNE 20:26:07 10° WNW
Resurs 01 Rocket 2.0 20:28:33 50° NNE 20:28:33 50° NNE 20:32:00 10° N
Resurs 1-3 4.2 20:30:01 45° NNE 20:30:01 45° NNE 20:33:12 10° N
HJ-1C 4.4 20:31:09 46° WNW 20:31:09 46° WNW 20:33:59 10° NNW
Meteor 2-2 Rocket 4.2 20:25:43 10° SSW 20:31:24 81° W 20:37:04 10° N
MOS 1-B Rocket 3.9 20:31:38 28° SSE 20:34:53 88° WSW 20:41:24 10° NNW
Cosmos 1302 Rocket 4.4 20:34:52 10° NNW 20:40:01 61° WSW 20:42:02 36° S
Meteor 1-27 4.1 20:38:03 10° S 20:43:48 81° E 20:49:39 10° NNE
Cosmos 1328 Rocket 4.1 20:42:36 10° SSW 20:46:55 57° WNW 20:51:15 10° N
Cosmos 1933 Rocket 4.0 20:43:16 10° NNW 20:47:29 58° W 20:47:29 58° W
Cosmos 2237 Rocket 3.5 20:44:57 10° NW 20:50:09 37° WSW 20:54:33 14° SSW
Spot 2 Rocket 3.6 20:51:52 71° NNW 20:51:52 71° NNW 20:56:25 10° NNW
Cosmos 494 Rocket 4.4 20:46:59 10° SW 20:52:02 60° WNW 20:54:33 29° N
Cosmos 2227 Rocket 2.3 20:55:41 10° SW 21:01:20 71° WNW 21:02:21 58° N
SL-16 R/B 2.4 20:58:13 10° NNW 21:03:51 64° WSW 21:04:12 62° SW
Cosmos 1603 4.4 20:58:57 10° NNW 21:03:02 43° N 21:03:02 43° N
BREEZE-M DEB (TANK) 4.1 21:04:02 10° W 21:09:09 35° WSW 21:09:09 35° WSW
ATLAS 5 CENTAUR R/B 3.3 21:08:35 10° NW 21:12:35 35° N 21:12:35 35° N
Lacrosse 5 rocket 3.5 21:11:06 10° NW 21:12:59 24° NW 21:12:59 24° NW
H-2A R/B 4.3 21:21:38 15° N 21:21:38 15° N 21:22:45 10° N
Envisat 4.1 21:27:24 41° WNW 21:27:24 41° WNW 21:31:34 10° NNW
Cosmos 2297 Rocket 3.3 21:33:08 10° SW 21:37:07 39° W 21:37:07 39° W
USA 234 4.0 22:04:37 48° WNW 22:04:37 48° WNW 22:09:10 10° WNW
CZ-4C R/B 4.0 22:00:36 10° WNW 22:05:24 29° NNW 22:05:24 29° NNW
